CFG7AP EDDF-LGSK

Flight info

Callsign CFG7AP
Flight time N/A
Altitude 35000
Route CINDY8S/18 CINDY Z74 LAMPU DCT NOMBO Y161 MAH DCT VAVOR DCT RADIZ DCT GORPA DCT DEVUL DCT REMSO DCT MEDUX UM867 KOGAT DCT ERANA UL737 TSL DCT
Aircraft A320/M-SDE3FGHIRWY/LB1

Departure

Time N/A
Airport Frankfurt Main Airport (EDDF)

Arrival

Time 2026-04-24 11:38
Airport Skiathos Island National Airport (LGSK)
Time Latitude Longitude Altitude Speed Heading
2026-04-24 11:11 40.44653 22.99557 33986 ft 463 kts 152°
2026-04-24 11:11 40.41718 23.01121 32921 ft 459 kts 157°
2026-04-24 11:11 40.38741 23.02578 31932 ft 454 kts 157°
2026-04-24 11:12 40.35807 23.04017 31018 ft 447 kts 157°
2026-04-24 11:12 40.32914 23.05444 30143 ft 441 kts 157°
2026-04-24 11:12 40.30065 23.06855 29184 ft 435 kts 157°
2026-04-24 11:12 40.27256 23.08249 28257 ft 428 kts 157°
2026-04-24 11:13 40.24494 23.09624 27365 ft 421 kts 157°
2026-04-24 11:13 40.21774 23.10978 26607 ft 416 kts 157°
2026-04-24 11:13 40.19098 23.12309 26157 ft 405 kts 157°
2026-04-24 11:13 40.16513 23.13592 25710 ft 390 kts 157°
2026-04-24 11:14 40.14016 23.14827 25248 ft 377 kts 157°
2026-04-24 11:14 40.11600 23.16021 24799 ft 365 kts 157°
2026-04-24 11:14 40.09264 23.17175 24357 ft 354 kts 157°
2026-04-24 11:14 40.06995 23.18295 23911 ft 343 kts 157°
2026-04-24 11:15 40.04776 23.19390 23479 ft 340 kts 157°
2026-04-24 11:15 40.02568 23.20479 23020 ft 338 kts 157°
2026-04-24 11:15 40.00369 23.21560 22605 ft 338 kts 157°
2026-04-24 11:15 39.98170 23.22639 22174 ft 337 kts 157°
2026-04-24 11:16 39.95979 23.23714 21754 ft 336 kts 157°
2026-04-24 11:16 39.93796 23.24791 21337 ft 335 kts 157°
2026-04-24 11:16 39.91623 23.25864 20931 ft 334 kts 157°
2026-04-24 11:16 39.89451 23.26931 20517 ft 333 kts 157°
2026-04-24 11:17 39.87283 23.27995 20111 ft 333 kts 157°
2026-04-24 11:17 39.85114 23.29058 19700 ft 333 kts 157°
2026-04-24 11:17 39.82945 23.30119 19289 ft 333 kts 157°
2026-04-24 11:17 39.80775 23.31182 18880 ft 334 kts 157°
2026-04-24 11:18 39.78602 23.32245 18472 ft 334 kts 157°
2026-04-24 11:18 39.76423 23.33310 18034 ft 335 kts 156°
2026-04-24 11:18 39.74247 23.34372 17614 ft 334 kts 156°
2026-04-24 11:18 39.72080 23.35429 17208 ft 332 kts 156°
2026-04-24 11:19 39.69917 23.36483 16812 ft 331 kts 156°
2026-04-24 11:19 39.67763 23.37532 16411 ft 330 kts 156°
2026-04-24 11:19 39.65613 23.38579 16030 ft 329 kts 156°
2026-04-24 11:19 39.63470 23.39623 15648 ft 329 kts 156°
2026-04-24 11:20 39.61329 23.40664 15270 ft 328 kts 156°
2026-04-24 11:20 39.59194 23.41700 14882 ft 327 kts 156°
2026-04-24 11:20 39.57061 23.42737 14507 ft 327 kts 156°
2026-04-24 11:20 39.54933 23.43771 14117 ft 327 kts 156°
2026-04-24 11:21 39.52838 23.44793 13722 ft 326 kts 156°
2026-04-24 11:21 39.50719 23.45825 13315 ft 324 kts 156°
2026-04-24 11:21 39.48613 23.46849 12929 ft 322 kts 157°
2026-04-24 11:21 39.46521 23.47859 12547 ft 320 kts 157°
2026-04-24 11:22 39.44443 23.48860 12161 ft 318 kts 157°
2026-04-24 11:22 39.42376 23.49857 11780 ft 316 kts 157°
2026-04-24 11:22 39.40323 23.50852 11394 ft 315 kts 157°
2026-04-24 11:22 39.38277 23.51844 11005 ft 314 kts 157°
2026-04-24 11:23 39.36235 23.52832 10600 ft 313 kts 158°
2026-04-24 11:23 39.34210 23.53809 10328 ft 307 kts 158°
2026-04-24 11:23 39.32220 23.54767 10013 ft 304 kts 158°
2026-04-24 11:23 39.30220 23.55731 9403 ft 310 kts 158°
2026-04-24 11:24 39.28199 23.56706 8955 ft 309 kts 158°
2026-04-24 11:24 39.26376 23.57585 8583 ft 308 kts 158°
2026-04-24 11:24 39.24377 23.58548 8154 ft 306 kts 158°
2026-04-24 11:24 39.22387 23.59507 7733 ft 304 kts 159°
2026-04-24 11:25 39.20407 23.60458 7305 ft 303 kts 160°
2026-04-24 11:25 39.18342 23.60951 6869 ft 304 kts 181°
2026-04-24 11:25 39.16287 23.60420 6420 ft 302 kts 204°
2026-04-24 11:25 39.14496 23.59282 5970 ft 300 kts 208°
2026-04-24 11:26 39.12659 23.58070 5524 ft 297 kts 208°
2026-04-24 11:26 39.10823 23.56859 5080 ft 295 kts 207°
2026-04-24 11:26 39.08926 23.55617 4620 ft 293 kts 208°
2026-04-24 11:26 39.07112 23.54436 4163 ft 291 kts 207°
2026-04-24 11:27 39.05312 23.53267 3718 ft 289 kts 207°
2026-04-24 11:27 39.03530 23.52093 3244 ft 288 kts 211°
2026-04-24 11:27 39.02120 23.50381 2940 ft 276 kts 243°
2026-04-24 11:27 39.01718 23.48081 2687 ft 259 kts 278°
2026-04-24 11:28 39.02402 23.46087 2475 ft 235 kts 317°
2026-04-24 11:28 39.03735 23.45240 2316 ft 210 kts 358°
2026-04-24 11:28 39.05058 23.45730 2182 ft 197 kts 28°
2026-04-24 11:28 39.06189 23.46574 2055 ft 179 kts 28°
2026-04-24 11:29 39.07262 23.47269 1860 ft 162 kts 15°
2026-04-24 11:29 39.08313 23.47579 1716 ft 150 kts 12°
2026-04-24 11:29 39.09304 23.47844 1568 ft 146 kts
2026-04-24 11:29 39.10313 23.47878 1350 ft 144 kts 358°
2026-04-24 11:30 39.11308 23.47828 1069 ft 142 kts
2026-04-24 11:30 39.12297 23.47913 800 ft 143 kts
2026-04-24 11:30 39.13232 23.48307 777 ft 144 kts 24°
2026-04-24 11:30 39.14159 23.48824 634 ft 145 kts 20°
2026-04-24 11:31 39.15093 23.49222 459 ft 140 kts 16°
2026-04-24 11:31 39.16034 23.49615 248 ft 143 kts 18°
2026-04-24 11:31 39.16969 23.50042 42 ft 142 kts 17°
2026-04-24 11:31 39.17908 23.50425 333 ft 147 kts 20°
2026-04-24 11:32 39.18905 23.50857 990 ft 153 kts 17°
2026-04-24 11:32 39.19904 23.51340 1587 ft 154 kts 20°
2026-04-24 11:32 39.20709 23.52265 2098 ft 166 kts 59°
2026-04-24 11:32 39.20873 23.53881 2146 ft 208 kts 98°
2026-04-24 11:33 39.20177 23.55583 2028 ft 219 kts 135°
2026-04-24 11:33 39.18844 23.56468 2013 ft 218 kts 172°
2026-04-24 11:33 39.17340 23.56355 2014 ft 218 kts 192°
2026-04-24 11:33 39.15852 23.55941 2009 ft 218 kts 195°
2026-04-24 11:34 39.14371 23.55499 2011 ft 218 kts 195°
2026-04-24 11:34 39.12901 23.55053 2010 ft 217 kts 195°
2026-04-24 11:34 39.11431 23.54611 2009 ft 218 kts 195°
2026-04-24 11:34 39.09957 23.54169 2011 ft 217 kts 195°
2026-04-24 11:35 39.08636 23.53329 2001 ft 212 kts 226°
2026-04-24 11:35 39.07954 23.51737 2004 ft 197 kts 264°
2026-04-24 11:35 39.08168 23.50100 2018 ft 183 kts 303°
2026-04-24 11:35 39.09073 23.48985 1878 ft 181 kts 325°
2026-04-24 11:36 39.10110 23.48044 1513 ft 183 kts 327°
2026-04-24 11:36 39.11234 23.47431 1215 ft 170 kts 355°
2026-04-24 11:36 39.12321 23.47767 949 ft 159 kts 31°
2026-04-24 11:36 39.13228 23.48493 807 ft 148 kts 24°
2026-04-24 11:37 39.14193 23.48930 602 ft 147 kts 15°
2026-04-24 11:37 39.15164 23.49244 349 ft 142 kts 14°
2026-04-24 11:37 39.16086 23.49623 203 ft 139 kts 20°
2026-04-24 11:37 39.16986 23.50051 35 ft 137 kts 16°
2026-04-24 11:38 39.17741 23.50378 39 ft 78 kts 19°
2026-04-24 11:38 39.18054 23.50516 48 ft 37 kts 18°
2026-04-24 11:38 39.18282 23.50614 56 ft 32 kts 18°
2026-04-24 11:38 39.18470 23.50693 61 ft 24 kts
2026-04-24 11:39 39.18508 23.50723 55 ft 6 kts 185°
2026-04-24 11:39 39.18452 23.50698 57 ft 11 kts 199°
2026-04-24 11:39 39.18362 23.50658 56 ft 15 kts 199°
2026-04-24 11:39 39.18268 23.50616 57 ft 14 kts 199°
2026-04-24 11:40 39.18171 23.50571 53 ft 16 kts 200°
2026-04-24 11:40 39.18061 23.50523 48 ft 17 kts 198°
2026-04-24 11:40 39.17950 23.50461 43 ft 18 kts 223°
2026-04-24 11:40 39.17937 23.50431 42 ft 0 kts 246°
2026-04-24 11:41 39.17933 23.50421 42 ft 3 kts 248°
2026-04-24 11:41 39.17913 23.50355 41 ft 12 kts 245°
2026-04-24 11:41 39.17896 23.50288 39 ft 3 kts 289°
2026-04-24 11:41 39.17909 23.50239 39 ft 3 kts 288°
2026-04-24 11:42 39.17910 23.50234 39 ft 0 kts 289°